SCP
1 1 1 1 1 1 1 1 1 1 1 1 2 1 1 1 1 1 1 0 1 1
1 2 2 1 1 1 1 1 1 1 1 1 1 1 2 2 1 1 1 0 0 1
0 1 1 1 1 2 1 1 1 1 2 2 1 1 2 2 1 1 1 1 1 1
0 1 1 1 1 1 1 1 1 1 1 1 2 2 2 2 1 1 1 1 1 1
0 0 0 0 0 0 0 0 0 0 0 1 1 2 3 2 2 1 1 1 1 1
0 0 0 0 0 0 0 0 0 0 0 1 1 1 2 2 2 2 2 1 1 1
0 0 0 0 0 0 0 0 0 0 0 0 1 1 1 1 2 2 2 2 1 2
0 0 0 0 0 0 0 0 0 0 0 0 1 1 1 1 1 1 1 1 1 1
0 0 0 0 0 0 0 0 0 0 0 0 0 0 0 0 1 1 1 1 1 1
0 0 0 0 0 0 0 0 0 0 0 0 0 0 0 0 1 1 1 1 1 1
0 0 0 0 0 0 0 0 0 0 0 0 0 0 0 0 0 0 0 0 0 0
0 0 0 0 0 0 0 0 0 0 0 0 0 0 0 0 0 0 0 0 0 0
0 0 0 0 0 0 0 0 0 0 0 0 0 0 0 0 0 0 0 0 0 0
0 0 0 0 0 0 0 0 0 0 0 0 0 0 0 -0 0 0 0 0 0 0
Wind_Speed_500mb
24 29 33 35 37 40 40 43 39 41 43 46 47 50 53 58 55 51 55 48 69 75
32 38 44 49 52 51 52 55 53 51 52 52 52 51 52 54 53 47 52 60 59 73
37 39 47 56 59 57 60 64 64 64 62 63 64 62 59 59 49 47 52 53 61 72
41 51 52 54 60 66 65 64 67 70 74 74 74 74 71 67 60 52 49 52 57 70
51 59 61 60 62 67 73 79 86 88 87 84 83 75 71 69 66 67 59 55 56 67
55 59 62 66 69 68 69 69 71 77 76 70 71 71 74 75 74 73 74 73 66 68
59 62 68 72 69 68 68 75 78 74 70 67 68 70 70 75 81 80 81 77 69 69
62 72 76 72 65 67 74 72 68 65 67 67 67 68 67 67 72 73 74 76 72 71
73 76 80 73 65 66 67 61 58 63 66 70 71 70 66 63 70 72 73 75 76 72
71 78 79 72 63 59 56 57 59 57 59 64 67 67 64 62 69 72 75 75 76 75
79 79 73 63 55 49 52 54 53 54 56 61 66 65 66 67 69 71 74 75 77 73
80 77 62 50 46 49 49 52 52 53 55 58 63 62 60 59 64 69 74 75 73 70
72 62 50 45 49 49 49 52 53 55 53 53 53 50 46 51 49 50 63 72 74 68
55 49 49 49 50 51 49 50 53 54 49 49 48 50 53 62 37 37 41 45 58 61
Wind_Direction_500mb
299 296 297 297 300 297 295 299 297 298 295 292 292 291 289 288 286 278 274 273 283 275
284 286 292 294 293 291 289 296 293 292 291 294 294 292 290 286 287 285 273 273 253 260
283 287 291 290 290 289 288 285 286 286 284 288 290 289 292 288 281 280 276 268 264 259
297 302 296 285 280 285 287 287 288 289 288 286 283 282 282 284 281 278 273 272 265 259
296 299 299 294 287 285 283 282 287 294 293 287 282 276 272 271 272 276 275 274 265 261
303 306 304 298 292 287 285 286 285 290 291 286 282 279 273 271 270 271 274 277 272 262
312 310 306 300 291 286 285 289 290 287 286 286 285 283 279 274 271 270 271 269 267 259
311 309 304 297 287 284 287 289 290 287 284 285 286 286 286 282 277 270 268 267 266 263
313 311 309 301 287 282 287 289 290 290 291 289 288 287 287 285 280 273 269 267 267 268
311 310 310 303 292 287 288 291 293 294 295 296 294 290 288 285 279 275 268 269 269 270
312 310 307 300 291 291 293 293 293 296 300 300 299 295 289 285 279 274 270 268 266 269
312 308 304 298 292 294 293 293 294 296 301 304 306 302 294 289 281 275 272 266 266 267
310 305 300 297 295 294 295 293 296 299 299 304 306 308 313 308 287 281 274 270 269 267
307 301 299 296 295 296 296 295 296 302 301 301 302 316 317 306 305 301 295 285 274 270
Wind_Speed_850mb
24 29 33 35 37 40 40 43 39 41 43 46 47 50 53 58 55 51 55 48 69 75
32 38 44 49 52 51 52 55 53 51 52 52 52 51 52 54 53 47 52 60 59 73
37 39 47 56 59 57 60 64 64 64 62 63 64 62 59 59 49 47 52 53 61 72
41 51 52 54 60 66 65 64 67 70 74 74 74 74 71 67 60 52 49 52 57 70
51 59 61 60 62 67 73 79 86 88 87 84 83 75 71 69 66 67 59 55 56 67
55 59 62 66 69 68 69 69 71 77 76 70 71 71 74 75 74 73 74 73 66 68
59 62 68 72 69 68 68 75 78 74 70 67 68 70 70 75 81 80 81 77 69 69
62 72 76 72 65 67 74 72 68 65 67 67 67 68 67 67 72 73 74 76 72 71
73 76 80 73 65 66 67 61 58 63 66 70 71 70 66 63 70 72 73 75 76 72
71 78 79 72 63 59 56 57 59 57 59 64 67 67 64 62 69 72 75 75 76 75
79 79 73 63 55 49 52 54 53 54 56 61 66 65 66 67 69 71 74 75 77 73
80 77 62 50 46 49 49 52 52 53 55 58 63 62 60 59 64 69 74 75 73 70
72 62 50 45 49 49 49 52 53 55 53 53 53 50 46 51 49 50 63 72 74 68
55 49 49 49 50 51 49 50 53 54 49 49 48 50 53 62 37 37 41 45 58 61
Wind_Direction_850mb
299 296 297 297 300 297 295 299 297 298 295 292 292 291 289 288 286 278 274 273 283 275
284 286 292 294 293 291 289 296 293 292 291 294 294 292 290 286 287 285 273 273 253 260
283 287 291 290 290 289 288 285 286 286 284 288 290 289 292 288 281 280 276 268 264 259
297 302 296 285 280 285 287 287 288 289 288 286 283 282 282 284 281 278 273 272 265 259
296 299 299 294 287 285 283 282 287 294 293 287 282 276 272 271 272 276 275 274 265 261
303 306 304 298 292 287 285 286 285 290 291 286 282 279 273 271 270 271 274 277 272 262
312 310 306 300 291 286 285 289 290 287 286 286 285 283 279 274 271 270 271 269 267 259
311 309 304 297 287 284 287 289 290 287 284 285 286 286 286 282 277 270 268 267 266 263
313 311 309 301 287 282 287 289 290 290 291 289 288 287 287 285 280 273 269 267 267 268
311 310 310 303 292 287 288 291 293 294 295 296 294 290 288 285 279 275 268 269 269 270
312 310 307 300 291 291 293 293 293 296 300 300 299 295 289 285 279 274 270 268 266 269
312 308 304 298 292 294 293 293 294 296 301 304 306 302 294 289 281 275 272 266 266 267
310 305 300 297 295 294 295 293 296 299 299 304 306 308 313 308 287 281 274 270 269 267
307 301 299 296 295 296 296 295 296 302 301 301 302 316 317 306 305 301 295 285 274 270